When you browse on this site, cookies collect data to enhance your experience and personalize the content and advertising you see.
Visit our Privacy Policy to learn more. By continuing to use the site, you agree to this use of cookies and data.

Météo par heure à Salta

Ce jour, 20 Septembre, Dimanche

Heure Température Précipitation Vent Pression Humidité
00:00 +12°C° 0 mm 1 m/s 654 mmHg 48%
01:00 +11°C° 0 mm 1 m/s 653 mmHg 50%
02:00 +10°C° 0 mm 1 m/s 653 mmHg 51%
03:00 +10°C° 0 mm 1 m/s 652 mmHg 53%
04:00 +9°C° 0 mm 1 m/s 652 mmHg 55%
05:00 +8°C° 0 mm 0 m/s 652 mmHg 57%
06:00 +9°C° 0 mm 0 m/s 652 mmHg 51%
07:00 +11°C° 0 mm 0 m/s 653 mmHg 46%
08:00 +13°C° 0 mm 0 m/s 654 mmHg 40%
09:00 +16°C° 0 mm 1 m/s 654 mmHg 37%
10:00 +18°C° 0 mm 2 m/s 654 mmHg 34%
11:00 +19°C° 0 mm 2 m/s 654 mmHg 30%
12:00 +20°C° 0 mm 3 m/s 654 mmHg 29%
13:00 +21°C° 0 mm 3 m/s 653 mmHg 28%
14:00 +22°C° 0 mm 3 m/s 653 mmHg 27%
15:00 +22°C° 0 mm 3 m/s 653 mmHg 28%
16:00 +21°C° 0 mm 3 m/s 652 mmHg 28%
17:00 +21°C° 0 mm 3 m/s 652 mmHg 29%
18:00 +18°C° 0 mm 3 m/s 652 mmHg 34%
19:00 +16°C° 0 mm 2 m/s 653 mmHg 39%
20:00 +13°C° 0 mm 1 m/s 653 mmHg 43%
21:00 +13°C° 0 mm 1 m/s 653 mmHg 45%
22:00 +12°C° 0 mm 1 m/s 653 mmHg 47%
23:00 +11°C° 0 mm 0 m/s 653 mmHg 49%

Demain, 21 Septembre, Lundi

Heure Température Précipitation Vent Pression Humidité
00:00 +10°C° 0 mm 0 m/s 653 mmHg 50%
01:00 +9°C° 0 mm 0 m/s 653 mmHg 52%
02:00 +9°C° 0 mm 0 m/s 652 mmHg 53%
03:00 +8°C° 0 mm 0 m/s 652 mmHg 55%
04:00 +8°C° 0 mm 0 m/s 652 mmHg 56%
05:00 +7°C° 0 mm 0 m/s 652 mmHg 58%
06:00 +9°C° 0 mm 0 m/s 653 mmHg 52%
07:00 +11°C° 0 mm 0 m/s 653 mmHg 46%
08:00 +13°C° 0 mm 0 m/s 654 mmHg 40%
09:00 +16°C° 0 mm 1 m/s 655 mmHg 36%
10:00 +18°C° 0 mm 2 m/s 655 mmHg 32%
11:00 +20°C° 0 mm 2 m/s 655 mmHg 28%
12:00 +21°C° 0 mm 3 m/s 654 mmHg 27%
13:00 +22°C° 0 mm 3 m/s 654 mmHg 26%
14:00 +24°C° 0 mm 3 m/s 653 mmHg 24%
15:00 +22°C° 0 mm 3 m/s 653 mmHg 25%
16:00 +22°C° 0 mm 3 m/s 652 mmHg 26%
17:00 +22°C° 0 mm 3 m/s 652 mmHg 26%
18:00 +19°C° 0 mm 2 m/s 652 mmHg 32%
19:00 +18°C° 0 mm 1 m/s 652 mmHg 38%
20:00 +14°C° 0 mm 1 m/s 651 mmHg 43%
21:00 +13°C° 0 mm 1 m/s 651 mmHg 45%
22:00 +12°C° 0 mm 0 m/s 651 mmHg 47%
23:00 +11°C° 0 mm 0 m/s 651 mmHg 49%

Après-demain, 22 Septembre, Mardi

Heure Température Précipitation Vent Pression Humidité
00:00 +11°C° 0 mm 0 m/s 651 mmHg 49%
01:00 +11°C° 0 mm 0 m/s 651 mmHg 50%
02:00 +10°C° 0 mm 0 m/s 650 mmHg 51%
03:00 +10°C° 0 mm 0 m/s 650 mmHg 51%
04:00 +10°C° 0 mm 0 m/s 650 mmHg 51%
05:00 +9°C° 0 mm 0 m/s 650 mmHg 51%
06:00 +12°C° 0 mm 0 m/s 651 mmHg 46%
07:00 +14°C° 0 mm 0 m/s 652 mmHg 40%
08:00 +16°C° 0 mm 0 m/s 653 mmHg 34%
09:00 +20°C° 0 mm 1 m/s 653 mmHg 30%
10:00 +23°C° 0 mm 2 m/s 653 mmHg 27%
11:00 +25°C° 0 mm 2 m/s 654 mmHg 23%
12:00 +26°C° 0 mm 3 m/s 653 mmHg 22%
13:00 +27°C° 0 mm 3 m/s 652 mmHg 20%
14:00 +28°C° 0 mm 3 m/s 652 mmHg 19%
15:00 +27°C° 0 mm 3 m/s 652 mmHg 20%
16:00 +27°C° 0 mm 3 m/s 651 mmHg 21%
17:00 +26°C° 0 mm 3 m/s 651 mmHg 22%
18:00 +24°C° 0 mm 2 m/s 651 mmHg 27%
19:00 +21°C° 0 mm 1 m/s 650 mmHg 33%
20:00 +16°C° 0 mm 0 m/s 650 mmHg 38%
21:00 +15°C° 0 mm 0 m/s 650 mmHg 40%
22:00 +15°C° 0 mm 0 m/s 650 mmHg 41%
23:00 +14°C° 0 mm 0 m/s 650 mmHg 43%

23 Septembre, Mercredi

Heure Température Précipitation Vent Pression Humidité
00:00 +14°C° 0 mm 0 m/s 650 mmHg 43%
01:00 +15°C° 0 mm 1 m/s 650 mmHg 43%
02:00 +14°C° 0 mm 1 m/s 650 mmHg 43%
03:00 +14°C° 0 mm 1 m/s 649 mmHg 44%
04:00 +14°C° 0 mm 1 m/s 649 mmHg 44%
05:00 +13°C° 0 mm 1 m/s 649 mmHg 45%
06:00 +15°C° 0 mm 0 m/s 651 mmHg 40%
07:00 +17°C° 0 mm 0 m/s 652 mmHg 35%
08:00 +19°C° 0 mm 0 m/s 653 mmHg 30%
09:00 +24°C° 0 mm 1 m/s 653 mmHg 28%
10:00 +26°C° 0 mm 2 m/s 654 mmHg 25%
11:00 +28°C° 0 mm 2 m/s 654 mmHg 23%
12:00 +29°C° 0 mm 3 m/s 653 mmHg 22%
13:00 +30°C° 0 mm 3 m/s 653 mmHg 21%
14:00 +31°C° 0 mm 3 m/s 652 mmHg 20%
15:00 +30°C° 0 mm 3 m/s 652 mmHg 22%
16:00 +29°C° 0 mm 3 m/s 651 mmHg 24%
17:00 +29°C° 0 mm 3 m/s 651 mmHg 25%
18:00 +26°C° 0 mm 2 m/s 651 mmHg 31%
19:00 +24°C° 0 mm 1 m/s 651 mmHg 38%
20:00 +21°C° 0 mm 1 m/s 651 mmHg 44%
21:00 +21°C° 0 mm 1 m/s 651 mmHg 44%
22:00 +21°C° 0 mm 1 m/s 651 mmHg 45%
23:00 +20°C° 0 mm 1 m/s 651 mmHg 46%

24 Septembre, Jeudi

Heure Température Précipitation Vent Pression Humidité
00:00 +20°C° 0 mm 1 m/s 651 mmHg 47%
01:00 +20°C° 0 mm 1 m/s 650 mmHg 49%
02:00 +19°C° 0 mm 1 m/s 650 mmHg 50%
03:00 +19°C° 0 mm 1 m/s 650 mmHg 51%
04:00 +19°C° 0 mm 1 m/s 650 mmHg 52%
05:00 +18°C° 0 mm 1 m/s 650 mmHg 54%
06:00 +20°C° 0 mm 1 m/s 651 mmHg 49%
07:00 +21°C° 0 mm 0 m/s 652 mmHg 44%
08:00 +23°C° 0 mm 0 m/s 653 mmHg 39%
09:00 +27°C° 0 mm 1 m/s 652 mmHg 38%
10:00 +28°C° 0 mm 2 m/s 652 mmHg 36%
11:00 +30°C° 0 mm 3 m/s 652 mmHg 35%
12:00 +31°C° 0 mm 3 m/s 651 mmHg 33%
13:00 +33°C° 0 mm 4 m/s 650 mmHg 31%
14:00 +34°C° 0 mm 4 m/s 650 mmHg 30%
15:00 +33°C° 0 mm 4 m/s 649 mmHg 31%
16:00 +33°C° 0 mm 4 m/s 649 mmHg 32%
17:00 +32°C° 0 mm 4 m/s 648 mmHg 33%
18:00 +29°C° 0 mm 3 m/s 648 mmHg 39%
19:00 +27°C° 0 mm 2 m/s 648 mmHg 44%
20:00 +25°C° 0 mm 1 m/s 648 mmHg 50%
21:00 +24°C° 0 mm 1 m/s 648 mmHg 51%
22:00 +24°C° 0 mm 1 m/s 649 mmHg 51%
23:00 +23°C° 0 mm 1 m/s 649 mmHg 52%

25 Septembre, Vendredi

Heure Température Précipitation Vent Pression Humidité
00:00 +23°C° 0 mm 1 m/s 648 mmHg 53%
01:00 +22°C° 0 mm 1 m/s 648 mmHg 53%
02:00 +22°C° 0 mm 1 m/s 648 mmHg 54%
03:00 +22°C° 0 mm 1 m/s 648 mmHg 53%
04:00 +21°C° 0 mm 1 m/s 647 mmHg 52%
05:00 +21°C° 0 mm 1 m/s 647 mmHg 52%
06:00 +23°C° 0 mm 1 m/s 648 mmHg 45%
07:00 +26°C° 0 mm 1 m/s 649 mmHg 39%
08:00 +28°C° 0 mm 1 m/s 650 mmHg 32%
09:00 +30°C° 0 mm 1 m/s 650 mmHg 29%
10:00 +32°C° 0 mm 1 m/s 651 mmHg 26%
11:00 +35°C° 0 mm 1 m/s 651 mmHg 23%
12:00 +37°C° 0 mm 2 m/s 650 mmHg 21%
13:00 +37°C° 0 mm 2 m/s 650 mmHg 19%
14:00 +38°C° 0 mm 3 m/s 649 mmHg 18%
15:00 +37°C° 0 mm 4 m/s 649 mmHg 20%
16:00 +36°C° 0 mm 4 m/s 648 mmHg 23%
17:00 +35°C° 0 mm 5 m/s 648 mmHg 26%
18:00 +32°C° 0.2 mm 4 m/s 648 mmHg 33%
19:00 +29°C° 0.2 mm 3 m/s 649 mmHg 41%
20:00 +26°C° 0.2 mm 2 m/s 649 mmHg 48%
21:00 +25°C° 0.2 mm 2 m/s 649 mmHg 55%
22:00 +24°C° 0.2 mm 2 m/s 650 mmHg 61%
23:00 +21°C° 0.2 mm 2 m/s 650 mmHg 68%
Voir plus